sat.trackr.live / text

‹ back to catalog

STARLINK-32466

NORAD 61859 · 2024-202Q

PAYLOAD ACTIVE UNKNOWN

§ Identity

Operator
Country
US
Launch date
2024-11-07
Launch site
AFETR
Launch vehicle
Mass (kg)
RCS (m²)

Purposes: comms

External: N2YO · Heavens-Above · Gunter

§ Orbital elements

Epoch: 2026-09-21T13:29:42.828000Z

Period
94.27 min
Inclination
43.0034°
Eccentricity
0.0001018
Mean motion
15.27599038 rev/d
Perigee alt
482.3 km
Apogee alt
483.7 km
Semi-major
6,861.1 km
B*
1.1245e-4
RAAN
211.8171°
Arg perigee
270.6512°
Mean anomaly
89.4223°
Rev number
10,529

§ Raw data

STARLINK-324661 61859U 24202Q   26264.56230125  .00002835  00000+0  11245-3 0  99962 61859  43.0034 211.8171 0001018 270.6512  89.4223 15.27599038105293

JSON: /api/v1/satellites/61859 · /tle

For live sub-satellite position, see the globe view (requires WebGL).

§ Visibility from observer

Set your observer location to see the next 7 days of passes ≥ 10°. The values pass through the URL so the page stays shareable.

No JS? Fill the form by hand. The geolocation button needs JavaScript.